GW0416 Weather Reports


time (UTC)temp
C
wind
direction
speed
KPH
gust
KPH
rain 1hr
cm
rain 24hr
cm
rain mn
cm
humidity
%
barometer
mb
20260509073029 12 51 12.9 19.3 0.00 0.00 0.00 50 1012.7
20260509071533 12 57 17.7 24.1 0.00 0.00 0.00 51 1012.3
20260509070038 12 12 11.3 16.1 0.00 0.00 0.00 51 1012.3
20260509064537 12 344 3.2 6.4 0.00 0.00 0.00 50 1012.4
20260509063032 12 53 6.4 14.5 0.00 0.00 0.00 49 1012.1
20260509061529 12 57 11.3 19.3 0.00 0.00 0.00 49 1011.9
20260509060036 12 32 14.5 19.3 0.00 0.00 0.00 49 1011.8
20260509054531 12 28 8.0 12.9 0.00 0.00 0.00 47 1011.9
20260509053032 12 293 6.4 12.9 0.00 0.00 0.00 43 1011.9
20260509051529 13 288 8.0 11.3 0.00 0.00 0.00 41 1011.5
20260509050044 13 316 8.0 17.7 0.00 0.00 0.00 37 1011.2
20260509044531 14 5 16.1 20.9 0.00 0.00 0.00 36 1010.9
20260509043030 15 22 19.3 25.7 0.00 0.00 0.00 34 1010.7
20260509041532 14 318 11.3 16.1 0.00 0.00 0.00 34 1010.5
20260509040031 15 344 12.9 16.1 0.00 0.00 0.00 33 1010.2
20260509034532 15 5 12.9 17.7 0.00 0.00 0.00 31 1010.0
20260509033029 16 14 16.1 22.5 0.00 0.00 0.00 30 1009.9
20260509031535 16 5 12.9 16.1 0.00 0.00 0.00 29 1009.7
20260509030038 16 11 12.9 16.1 0.00 0.00 0.00 29 1009.3
20260509024537 17 17 14.5 19.3 0.00 0.00 0.00 28 1009.1
20260509023033 17 22 16.1 22.5 0.00 0.00 0.00 27 1009.0
20260509021530 18 21 17.7 24.1 0.00 0.00 0.00 26 1008.8
20260509020031 19 16 19.3 30.6 0.00 0.00 0.00 25 1008.8
20260509014532 20 9 19.3 35.4 0.00 0.00 0.00 25 1008.6
20260509013036 20 360 25.7 33.8 0.00 0.00 0.00 24 1008.6
20260509011530 20 9 29.0 40.2 0.00 0.00 0.00 25 1008.6
20260509010032 20 347 27.4 40.2 0.00 0.00 0.00 25 1008.6
20260509004538 21 355 29.0 37.0 0.00 0.00 0.00 25 1008.5
20260509003028 21 346 27.4 41.8 0.00 0.00 0.00 24 1008.4
20260509001532 21 324 24.1 37.0 0.00 0.00 0.00 22 1008.4
20260509000036 21 311 29.0 41.8 0.00 0.00 0.00 22 1008.3
20260508234531 21 298 22.5 45.1 0.00 0.00 0.00 23 1008.4
20260508233032 21 290 32.2 46.7 0.00 0.00 0.00 22 1008.3
20260508231530 22 323 32.2 45.1 0.00 0.00 0.00 19 1008.4
20260508230030 22 320 30.6 48.3 0.00 0.00 0.00 19 1008.5
20260508224532 22 348 22.5 51.5 0.00 0.00 0.00 19 1008.3
20260508223036 22 325 25.7 45.1 0.00 0.00 0.00 19 1008.5
20260508221536 22 306 35.4 49.9 0.00 0.00 0.00 19 1008.5
20260508220036 22 292 33.8 51.5 0.00 0.00 0.00 20 1008.5
20260508214528 22 306 33.8 51.5 0.00 0.00 0.00 21 1008.6
20260508213043 22 304 29.0 54.7 0.00 0.00 0.00 20 1008.4
20260508211533 22 346 32.2 54.7 0.00 0.00 0.00 17 1008.6
20260508210033 22 275 32.2 48.3 0.00 0.00 0.00 21 1008.6
20260508204532 22 317 27.4 48.3 0.00 0.00 0.00 21 1008.6
20260508203035 22 306 25.7 57.9 0.00 0.00 0.00 21 1008.7
20260508201533 22 276 32.2 49.9 0.00 0.00 0.00 20 1008.6
20260508200034 22 275 24.1 41.8 0.00 0.00 0.00 23 1008.8
20260508194530 21 315 20.9 38.6 0.00 0.00 0.00 28 1009.0
20260508193031 21 305 20.9 40.2 0.00 0.00 0.00 29 1009.1
20260508191532 21 333 17.7 37.0 0.00 0.00 0.00 28 1009.4
20260508190039 21 292 24.1 41.8 0.00 0.00 0.00 30 1009.7
20260508184530 20 288 25.7 38.6 0.00 0.00 0.00 29 1010.0
20260508183036 20 262 16.1 35.4 0.00 0.00 0.00 32 1010.1
20260508181551 20 265 17.7 41.8 0.00 0.00 0.00 32 1010.4
20260508180032 20 281 19.3 33.8 0.00 0.00 0.00 34 1010.5
20260508174531 19 272 20.9 30.6 0.00 0.00 0.00 36 1010.6
20260508173028 18 290 17.7 27.4 0.00 0.00 0.00 39 1010.7
20260508171529 18 244 14.5 24.1 0.00 0.00 0.00 42 1011.1
20260508170030 17 252 11.3 29.0 0.00 0.00 0.00 47 1011.2
20260508164538 16 261 16.1 27.4 0.00 0.00 0.00 49 1011.3
20260508163031 16 242 17.7 27.4 0.00 0.00 0.00 52 1011.4
20260508161528 16 254 17.7 27.4 0.00 0.00 0.00 54 1011.5
20260508160037 16 249 14.5 24.1 0.00 0.00 0.00 55 1011.7
20260508154530 15 215 14.5 25.7 0.00 0.00 0.00 56 1011.9
20260508153029 14 221 12.9 20.9 0.00 0.00 0.00 58 1012.0
20260508151529 13 238 12.9 20.9 0.00 0.00 0.00 63 1012.0
20260508150032 12 235 14.5 22.5 0.00 0.00 0.00 66 1012.3
20260508144531 11 245 16.1 25.7 0.00 0.00 0.00 68 1012.5
20260508143032 10 222 17.7 25.7 0.00 0.00 0.00 68 1012.4
20260508141545 10 241 16.1 27.4 0.00 0.00 0.00 68 1012.4
20260508140028 10 244 14.5 22.5 0.00 0.00 0.00 66 1012.5
20260508134528 11 260 9.7 14.5 0.00 0.00 0.00 66 1012.7
20260508133032 11 271 3.2 11.3 0.00 0.00 0.00 68 1012.5
20260508131530 9 265 8.0 11.3 0.00 0.00 0.00 70 1012.6
20260508130030 7 251 3.2 8.0 0.00 0.00 0.00 72 1012.6
20260508124528 7 328 1.6 6.4 0.00 0.00 0.00 71 1012.5
20260508123030 7 360 4.8 8.0 0.00 0.00 0.00 72 1012.4
20260508121530 7 293 6.4 11.3 0.00 0.00 0.00 71 1012.5
20260508120037 7 304 6.4 8.0 0.00 0.00 0.00 69 1012.5
20260508114529 8 294 6.4 9.7 0.00 0.00 0.00 67 1012.5
20260508113029 8 301 8.0 11.3 0.00 0.00 0.00 67 1012.6
20260508111539 8 325 4.8 9.7 0.00 0.00 0.00 66 1012.5
20260508110028 7 309 6.4 12.9 0.00 0.00 0.00 63 1012.7
20260508104530 7 305 9.7 14.5 0.00 0.00 0.00 62 1012.8
20260508103033 7 304 8.0 12.9 0.00 0.00 0.00 60 1013.0
20260508101539 7 302 6.4 14.5 0.00 0.00 0.00 59 1012.9
20260508100032 7 319 8.0 14.5 0.00 0.00 0.00 58 1012.8
20260508094529 6 304 9.7 14.5 0.00 0.00 0.00 57 1012.8
20260508093030 7 292 9.7 12.9 0.00 0.00 0.00 54 1012.7
20260508091531 8 302 6.4 16.1 0.00 0.00 0.00 51 1012.8
20260508090036 8 292 11.3 14.5 0.00 0.00 0.00 49 1012.8
20260508084530 9 315 6.4 12.9 0.00 0.00 0.00 48 1012.6
20260508083036 8 304 6.4 14.5 0.00 0.00 0.00 50 1012.7
20260508081530 9 323 8.0 12.9 0.00 0.00 0.00 50 1012.7
20260508080035 8 302 8.0 12.9 0.00 0.00 0.00 54 1012.7
20260508074529 8 283 4.8 12.9 0.00 0.00 0.00 55 1012.7